www.pogodaiklimat.ru

ПОГОДА в Коппер Харбор, MI

  • Прогноз погоды в Коппер Харбор
  • Монитор погоды в Коппер Харбор
  • Климат в Коппер Харбор

АРХИВ ПОГОДЫ в Коппер Харбор

Время (UTC), дата Ветер
(напр.,м/с)
 
Видим.   Явления Облачность Т
(С)
Тd
(С)
f
(%)
Тe
(С)
Тes
(С)
Комфортность

P
(гПа)

Po
(гПа)
Тmin
(С)
Tmax
(С)
R
(мм)
SD
(см)
23:51 24.03 С  н/о    н/о  -4.4  -8.9  71  -11  -11    1028.5  1003.7         
00:51 25.03 С  н/о    н/о  -5.0  -10.6  65  -11  -11    1029.2  1004.7         
01:51 25.03   н/о    н/о  -6.1  -10.6  70  -7  -7    1029.3  1004.4         
02:51 25.03   н/о    н/о  -7.8  -11.1  77  -8  -8    1029.3  1004.4         
03:51 25.03   н/о    н/о  -8.3  -11.1  80  -9  -9    1029.6  1004.7         
04:51 25.03   н/о    н/о  -7.8  -11.7  74  -8  -8    1029.8  1005.0  -8.9  -3.9     
05:51 25.03 С  н/о    н/о  -6.1  -11.1  68  -12  -12    1029.7  1005.0         
06:51 25.03 С  н/о    н/о  -5.6  -11.1  65  -10  -10    1029.4  1004.7         
07:51 25.03 СЗ  н/о    н/о  -5.6  -12.2  60  -9  -9    1029.1  1004.4         
08:51 25.03   н/о    н/о  -5.6  -12.8  57  -6  -6    1029.0  1004.4         
09:51 25.03 нст  н/о    н/о  -5.6  -12.8  57  -9  -9    1029.0  1004.4         
10:51 25.03 З  н/о    н/о  -8.9  -13.3  70  -15  -15    1029.7  1005.0  -9.4  -4.4     
11:51 25.03   н/о    н/о  -6.7  -12.2  65  -7  -7    1030.3  1005.4         
12:51 25.03 С  н/о    н/о  -3.9  -10.6  60  -10  -10    1030.3  1005.7         
13:51 25.03 С  н/о    н/о  -2.2  -11.7  48  -9  -9    1030.6  1006.0         
14:51 25.03 С  н/о    н/о  -1.7  -11.7  46  -8  -8    1030.5  1005.7         
15:51 25.03 С  н/о    н/о  -1.7  -10.0  53  -9  -9    1030.3  1005.7         
16:51 25.03 С  н/о    н/о  -1.1  -12.8  41  -9  -9    1029.9  1005.4  -9.4  -1.1     
17:51 25.03 С  н/о    н/о  -1.1  -12.2  43  -9  -9    1029.3  1004.7         
18:51 25.03 С  н/о    н/о  -0.6  -10.6  47  -7  -7    1028.4  1004.0         
19:51 25.03 С  6
{11} 
н/о    н/о  0.0  -13.3  36  -6  -6    1028.1  1003.7         
20:51 25.03 С  6
{11} 
н/о    н/о  +0.6  -13.9  33  -5  -5    1027.9  1003.4         
21:51 25.03 СЗ  6
{9} 
н/о    н/о  +0.6  -13.9  33  -5  -5    1027.8  1003.4         
22:51 25.03 С  4
{8} 
н/о    н/о  -0.6  -15.6  31  -5  -5    1028.2  1003.7  -1.1  +0.6     
23:51 25.03 СЗ  4
{8} 
н/о    н/о  -1.7  -12.2  45  -7  -7    1028.1  1003.7         
00:51 26.03 СЗ  н/о    н/о  -1.7  -9.4  56  -7  -7    1028.3  1003.7         
01:51 26.03 СЗ  н/о    н/о  -1.1  -8.9  55  -7  -7    1028.5  1004.0         
02:51 26.03 СЗ  н/о    н/о  -1.7  -8.9  58  -6  -6    1028.8  1004.4         
03:51 26.03 С  н/о    н/о  -1.7  -7.2  66  -8  -8    1028.7  1004.4         
04:51 26.03 З  н/о    н/о  -1.7  -7.8  63  -6  -6    1029.0  1004.7  -2.8  -0.6     
05:51 26.03 З  н/о    н/о  -3.3  -8.3  68  -8  -8    1029.4  1005.0         
06:51 26.03 ЮЗ  н/о    н/о  -4.4  -8.3  74  -10  -10    1029.5  1005.0         
07:51 26.03 З  н/о    н/о  -5.6  -8.9  78  -12  -12    1029.4  1005.0         
08:51 26.03 ЮЗ  н/о    н/о  -6.7  -10.0  77  -13  -13    1029.6  1005.0         
09:51 26.03 ЮЗ  н/о    н/о  -7.8  -11.1  77  -13  -13    1029.8  1005.4         
10:51 26.03 ЮЗ  н/о    н/о  -7.8  -11.7  74  -13  -13    1030.2  1005.4  -8.3  -1.7     
11:51 26.03 ЮЗ  н/о    н/о  -4.4  -11.1  59  -10  -10    1030.3  1005.7         
12:51 26.03 нст  н/о    н/о  0.0  -9.4  49  -4  -4    1030.2  1006.0         
13:51 26.03 нст  н/о    н/о  +2.8  -12.8  31  0  0    1029.9  1005.7         
14:51 26.03 ЮЗ  н/о    н/о  +3.3  -13.3  28  -1  -1    1029.3  1005.4         
15:51 26.03 нст  3
{9} 
н/о    н/о  +3.9  -12.8  28  +1  +1    1028.9  1004.7         
16:51 26.03 СВ  н/о    н/о  +1.7  -5.0  61  -2  -2    1028.6  1004.4  -8.9  +3.9     
17:51 26.03 СВ  н/о    н/о  +2.8  -7.8  46  +1  +1    1028.2  1004.0         
18:51 26.03 В  н/о    н/о  +2.2  -8.3  46  0  0    1027.5  1003.4         
19:51 26.03   н/о    н/о  +3.3  -8.3  42  +3  +3    1026.6  1002.4         
20:51 26.03   н/о    н/о  +1.7  -2.8  72  +1  +1    1025.8  1001.4         
21:51 26.03   н/о    н/о  +3.9  -6.1  48  +4  +4    1025.0  1000.7         
22:51 26.03   н/о    н/о  +2.8  -11.1  35  +3  +3    1024.6  1000.4  +1.7  +4.4     

 

Местоположение метеостанции Copper Harbor: широта 47.4669 долгота -87.8750 высота над уровнем моря 190 м.

В архиве по умолчанию представлена погода в Коппер Харбор за последние 1-2 суток. Обновление информации о фактической погоде в базе происходит ежечасно! Архивные данные за месяц целиком и за предыдущие месяцы Вы можете получить, выбрав интересующий диапазон дат из раскрывающегося списка и нажав кнопку "Ввод!".

Внимание! Архив погоды МЕТАР в базе сайта хранится не более 60 дней. Нет смысла пытаться выбрать более раннюю дату.

Внимание! Время в таблицах - всемирное. Для получения местного времени необходимо прибавить поправку, которая в Коппер Харбор равна -5 ч.

Ветер - указаны скорость ветра в м/с и направление, откуда дует ветер: С - северный, СВ - северо-восточный, В - восточный, ЮВ - юго-восточный, Ю - южный, ЮЗ - юго-западный, З - западный, СЗ - северо-западный.
Видимость - горизонтальная дальность видимости в метрах или километрах. При видимости от 1 до 10 км при отсутствии осадков обычно наблюдается дымка, при ухудшении видимости до 1 км и менее - туман. В сухую погоду видимость может ухудшаться дымом, пылью или мглою.
Атмосферные явления - указаны явления, наблюдавшиеся в указанный момент времени.
Облачность - указаны через наклонную черту верхняя и нижняя облачность в баллах и высота нижней границы облаков в метрах. Внимание: облачность, как и прочие метеорологические величины в США измеряются автоматическими метеостанциями. Указанные значения в баллах носят условный характер и показывают процент времени, в течение которого, в среднем, лазерный луч высотомера отражался от облаков обратно.
T - Температура воздуха - температура, измеренная на высоте 2 м над землей.
Td - Температура точки росы - температура, при понижении до которой содержащийся в воздухе водяной пар достигнет насыщения.
f - Относительная влажность воздуха - влажноcть воздуха, измеренная на высоте 2 м над землей.
Te - Эффективная температура - температура, которую ощущает одетый по сезону человек в тени. Характеристика душности погоды. При расчете учитывается влияние влажности воздуха и скорости ветра на теплоощущения человека.
Tes - Эффективная температура на солнце - температура, которую ощущает человек, с поправкой на солнечный нагрев. Характеристика знойности погоды. Зависит от высоты солнца над горизонтом, облачности и скорости ветра. Ночью, в пасмурную погоду, а также при ветре 12 м/с и более поправка равна нулю.
P - Атмосферное давление - приведенное к уровню моря атмосферное давление.
Po - Атмосферное давление - измеренное на уровне метеостанции атмосферное давление.
Tmin - Минимальная температура - минимум температуры воздуха на высоте 2 м над землей.
Tmax - Максимальная температура - максимум температуры воздуха на высоте 2 м над землей.
R - Количество осадков - Количество выпавших осадков за 3 или 6 часов, мм.
SD - Снежный покров - Высота снежного покрова, см.